GOSAT (IBUKI)

Last updated on Mon Sep 07 2026 00:02:45 GMT+0000 (Coordinated Universal Time)

1 33492U 09002A 26249.27518237 .00000330 00000+0 66733-4 0 9994 2 33492 98.0947 359.3640 0001525 102.1219 258.0156 14.67532761943352
UTC large
Height (km)
Speed (km/s)
/
Latitude / Longitude
Inclination (degrees)
Orbital Period (minutes)
Azimuth
Elevation
Range (km)
Doppler Factor

Next 0 passes for location: London (51.5072 / 0.1276)

No passes found over London.
GOSAT (IBUKI)